Location: Devore Heights
(34.2372°N, 117.4156°W)
Time: 03:31:04
(UTC+00:00)

Explorer 11/Cluster Stage 4 - Pass Details

Date: 19 September 2024
Orbit: 464 x 1207 km, 28.8° (Epoch: 08 October)

Event Time Altitude Azimuth Distance (km) Brightness Sun altitude
Exits shadow 10:53:29 13° 132° (SE) 2,050 8.9 -33.1°
Drops below altitude 10° 10:55:00 10° 117° (ESE) 2,342 9.4 -32.8°
Sets 10:58:57 0° 95° (E) 3,468 10.7 -32.1°
